Terminal Aerodrome Forecast
Issued by NWS

Home | Current Version | Previous Version | Text Only | Print | Product List | Glossary On
Versions: 1 2 3 4 5 6 7 8 9 10 11 12 13 14 15 16 17 18 19 20 21 22 23 24 25 26 27 28 29 30 31 32 33 34 35 36 37 38 39 40 41 42 43 44 45 46 47 48 49 50
000
FTUS45 KBOU 220538
TAFAPA
TAF
KAPA 220538Z 2206/2306 15011KT P6SM VCSH SCT022 BKN035 OVC050
      TEMPO 2206/2208 -SHRA BKN020
     FM220800 13010KT 5SM -SHRA BR SCT012 BKN020 OVC030
      TEMPO 2208/2211 3SM -RA BR BKN011
     FM221100 13010KT 3SM -RA BKN009 OVC020
     FM221400 VRB05KT P6SM SCT017 BKN028 BKN050
     FM222100 08008KT P6SM VCSH SCT015 BKN030 OVC050
      TEMPO 2222/2302 4SM -TSRA BKN015CB
     FM230200 03008KT P6SM VCTS SCT015CB OVC030 PROB30 2302/2306 4SM
      -SHRA SCT008 BKN015=

USA.gov is the U.S. government's official web portal to all federal, state and local government web resources and services.